Greensboro, NC

10:16 PM EST on February 05, 2016 (GMT -0500)
Piedmont Triad International

Weather History for KGSO - June, 2013

Change the Weather History Date:

Wednesday, June 5, 2013

  Actual Average Record
Temperature  
Mean Temperature 69 °F 72 °F  
Max Temperature 74 °F 82 °F 98 °F (1925)
Min Temperature 63 °F 63 °F 45 °F (1946)
Degree Days  
Heating Degree Days 0 1  
Month to date heating degree days 0 5  
Since 1 June heating degree days 0 5  
Since 1 July heating degree days 3637 3617  
Cooling Degree Days 4 8  
Month to date cooling degree days 43 37  
Year to date cooling degree days 193 196  
Since 1 June cooling degree days 43 37  
Growing Degree Days 18 (Base 50)    
Moisture  
Dew Point 62 °F    
Average Humidity 78    
Maximum Humidity 93    
Minimum Humidity 63    
Precipitation  
Precipitation 0.18 in 0.13 in 1.77 in (1957)
Month to date precipitation 0.99 0.66  
Year to date precipitation 19.34 17.36  
Sea Level Pressure  
Sea Level Pressure 30.08 in    
Wind  
Wind Speed 5 mph (ENE)    
Max Wind Speed 9 mph    
Max Gust Speed 25 mph    
Visibility 8 miles    
Events Rain    
T = Trace of Precipitation, MM = Missing Value Source: NWS Daily Summary

Daily Weather History Graph

Daily Weather History Graph

Search for Another Location

Airport or City:

Trip Planner

Search our weather history database for the weather conditions in past years. The results will help you decide how hot, cold, wet, or windy it might be!

Date:

Astronomy

Jun. 05, 2013 Rise Set
Actual Time 6:02 AM EDT 8:33 PM EDT
Civil Twilight 5:33 AM EDT 9:03 PM EDT
Nautical Twilight 4:55 AM EDT 9:41 PM EDT
Astronomical Twilight 4:14 AM EDT 10:22 PM EDT
Moon 4:01 AM EDT (6/5) 6:02 PM EDT (6/5)
Length of Visible Light 15h 30m
Length of Day
14h 30m
Waning Crescent, 8% of the Moon is Illuminated
Jun 5
Waning Crescent
Jun 8
New
Jun 16
First Quarter
Jun 23
Full
Jun 30
Last Quarter

Hourly Weather History & Observations

Time (EDT) Temp. Dew Point Humidity Pressure Visibility Wind Dir Wind Speed Gust Speed Precip Events Conditions
12:54 AM 64.9 °F 61.0 °F 87% 30.09 in 9.0 mi Calm Calm - N/A   Partly Cloudy
1:54 AM 64.9 °F 61.0 °F 87% 30.09 in 9.0 mi Calm Calm - N/A   Mostly Cloudy
2:54 AM 64.0 °F 61.0 °F 90% 30.08 in 9.0 mi ENE 3.5 mph - N/A   Partly Cloudy
3:51 AM 64.4 °F 60.8 °F 88% 30.09 in 10.0 mi ENE 3.5 mph - N/A   Mostly Cloudy
3:54 AM 64.9 °F 61.0 °F 87% 30.07 in 10.0 mi ENE 3.5 mph - N/A   Mostly Cloudy
4:08 AM 64.4 °F 60.8 °F 88% 30.09 in 10.0 mi Calm Calm - N/A   Overcast
4:42 AM 64.4 °F 60.8 °F 88% 30.09 in 9.0 mi East 5.8 mph - N/A   Overcast
4:54 AM 64.9 °F 61.0 °F 87% 30.07 in 9.0 mi East 4.6 mph - N/A   Scattered Clouds
5:54 AM 64.9 °F 61.0 °F 87% 30.09 in 8.0 mi NNE 4.6 mph - N/A   Overcast
6:19 AM 64.4 °F 62.6 °F 94% 30.12 in 7.0 mi NE 5.8 mph - N/A   Overcast
6:32 AM 64.4 °F 62.6 °F 94% 30.12 in 7.0 mi NE 5.8 mph - N/A   Overcast
6:54 AM 64.9 °F 62.1 °F 90% 30.10 in 7.0 mi NE 4.6 mph - N/A   Overcast
7:54 AM 66.0 °F 63.0 °F 90% 30.12 in 6.0 mi ENE 3.5 mph - 0.00 in   Overcast
8:14 AM 66.2 °F 64.4 °F 94% 30.14 in 6.0 mi ESE 4.6 mph - N/A   Overcast
8:54 AM 68.0 °F 62.1 °F 81% 30.12 in 10.0 mi East 5.8 mph - 0.00 in   Overcast
9:54 AM 68.0 °F 57.0 °F 68% 30.13 in 10.0 mi East 6.9 mph - N/A   Overcast
10:15 AM 69.8 °F 57.2 °F 64% 30.15 in 10.0 mi East 4.6 mph - N/A   Overcast
10:54 AM 68.0 °F 55.9 °F 65% 30.13 in 10.0 mi East 8.1 mph - N/A   Overcast
11:54 AM 69.1 °F 57.0 °F 65% 30.12 in 10.0 mi Variable 4.6 mph - N/A   Overcast
12:54 PM 69.1 °F 57.0 °F 65% 30.11 in 10.0 mi SSW 5.8 mph - N/A   Overcast
1:54 PM 66.9 °F 60.1 °F 79% 30.11 in 4.0 mi SSW 4.6 mph - 0.00 in Rain Light Rain
2:30 PM 64.4 °F 60.8 °F 88% 30.11 in 2.5 mi WSW 4.6 mph - 0.01 in Rain Light Rain
2:54 PM 64.9 °F 62.1 °F 90% 30.09 in 2.0 mi Calm Calm - 0.03 in Rain Light Rain
3:26 PM 66.2 °F 62.6 °F 88% 30.09 in 4.0 mi Calm Calm - 0.02 in Rain Light Rain
3:54 PM 70.0 °F 64.9 °F 84% 30.06 in 7.0 mi Variable 3.5 mph - 0.02 in   Mostly Cloudy
4:54 PM 72.0 °F 64.0 °F 76% 30.04 in 10.0 mi East 3.5 mph - N/A   Mostly Cloudy
5:54 PM 73.0 °F 63.0 °F 71% 30.04 in 10.0 mi ENE 4.6 mph - N/A   Mostly Cloudy
6:54 PM 72.0 °F 64.9 °F 78% 30.02 in 10.0 mi ENE 8.1 mph - N/A   Scattered Clouds
7:54 PM 71.1 °F 64.9 °F 81% 30.02 in 10.0 mi ENE 4.6 mph - N/A   Mostly Cloudy
8:54 PM 69.1 °F 64.9 °F 87% 30.01 in 10.0 mi ENE 6.9 mph - N/A   Mostly Cloudy
9:54 PM 68.0 °F 64.9 °F 90% 30.03 in 9.0 mi NNE 5.8 mph - N/A   Overcast
10:54 PM 68.0 °F 64.0 °F 87% 30.03 in 10.0 mi NE 5.8 mph - N/A   Overcast
11:54 PM 66.9 °F 64.9 °F 93% 30.02 in 4.0 mi Calm Calm - 0.01 in Rain Light Rain